Time,TemperatureF,DewpointF,PressureIn,WindDirection,WindDirectionDegrees,WindSpeedMPH,WindSpeedGustMPH,Humidity,HourlyPrecipIn,Conditions,Clouds,dailyrainin,SolarRadiationWatts/m^2,SoftwareType,DateUTC
2013-07-17 00:01:00,77.3,71.4,30.17,WNW,303,0.0,0.0,82,0.00,CLR,,0.00,0.0,WeatherDisplay:10.37,2013-07-17 04:01:00,
2013-07-17 00:02:00,77.2,71.3,30.17,WNW,303,0.0,0.0,82,0.00,CLR,,0.00,0.0,WeatherDisplay:10.37,2013-07-17 04:02:00,
2013-07-17 00:05:00,77.1,71.2,30.16,WNW,303,0.0,0.0,82,0.00,CLR,,0.00,0.0,WeatherDisplay:10.37,2013-07-17 04:05:00,
2013-07-17 00:10:00,76.9,71.3,30.16,WNW,303,0.0,0.0,83,0.00,CLR,,0.00,0.0,WeatherDisplay:10.37,2013-07-17 04:10:00,
2013-07-17 00:15:00,76.8,71.2,30.16,WNW,303,0.0,0.0,83,0.00,CLR,,0.00,0.0,WeatherDisplay:10.37,2013-07-17 04:15:00,
2013-07-17 00:20:00,76.6,71.0,30.16,WNW,303,0.0,0.0,83,0.00,CLR,,0.00,0.0,WeatherDisplay:10.37,2013-07-17 04:20:00,
2013-07-17 00:25:00,76.5,70.9,30.16,WNW,303,0.0,0.0,83,0.00,CLR,,0.00,0.0,WeatherDisplay:10.37,2013-07-17 04:25:00,
2013-07-17 00:30:00,76.4,71.2,30.17,WNW,303,0.0,0.0,84,0.00,CLR,,0.00,0.0,WeatherDisplay:10.37,2013-07-17 04:30:00,
2013-07-17 00:35:00,76.3,71.1,30.17,WNW,303,0.0,0.0,84,0.00,CLR,,0.00,0.0,WeatherDisplay:10.37,2013-07-17 04:35:00,
2013-07-17 00:40:00,76.1,71.6,30.17,WNW,303,0.0,0.0,86,0.00,CLR,,0.00,0.0,WeatherDisplay:10.37,2013-07-17 04:40:00,
2013-07-17 00:45:00,76.1,71.6,30.16,WNW,303,0.0,0.0,86,0.00,CLR,,0.00,0.0,WeatherDisplay:10.37,2013-07-17 04:45:00,
2013-07-17 00:50:00,76.0,71.5,30.16,WNW,303,0.0,0.0,86,0.00,CLR,,0.00,0.0,WeatherDisplay:10.37,2013-07-17 04:50:00,
2013-07-17 00:55:00,76.0,71.5,30.16,WNW,303,0.0,0.0,86,0.00,CLR,,0.00,0.0,WeatherDisplay:10.37,2013-07-17 04:55:00,
2013-07-17 00:59:00,75.9,71.4,30.16,WNW,303,0.0,0.0,86,0.00,CLR,,0.00,0.0,WeatherDisplay:10.37,2013-07-17 04:59:00,
2013-07-17 01:04:00,75.8,71.0,30.16,WNW,303,0.0,0.0,85,0.00,CLR,,0.00,0.0,WeatherDisplay:10.37,2013-07-17 05:04:00,
2013-07-17 01:09:00,75.6,71.1,30.16,WNW,303,0.0,0.0,86,0.00,CLR,,0.00,0.0,WeatherDisplay:10.37,2013-07-17 05:09:00,
2013-07-17 01:14:00,75.5,71.0,30.16,WNW,303,0.0,0.0,86,0.00,CLR,,0.00,0.0,WeatherDisplay:10.37,2013-07-17 05:14:00,
2013-07-17 01:19:00,75.5,71.0,30.16,WNW,303,0.0,0.0,86,0.00,CLR,,0.00,0.0,WeatherDisplay:10.37,2013-07-17 05:19:00,
2013-07-17 01:24:00,75.4,70.9,30.16,WNW,303,0.0,0.0,86,0.00,CLR,,0.00,0.0,WeatherDisplay:10.37,2013-07-17 05:24:00,
2013-07-17 01:29:00,75.3,70.5,30.16,WNW,303,0.0,0.0,85,0.00,CLR,,0.00,0.0,WeatherDisplay:10.37,2013-07-17 05:29:00,
2013-07-17 01:34:00,75.1,70.3,30.16,WNW,303,0.0,0.0,85,0.00,CLR,,0.00,0.0,WeatherDisplay:10.37,2013-07-17 05:34:00,
2013-07-17 01:39:00,74.9,70.1,30.16,WNW,303,0.0,0.0,85,0.00,CLR,,0.00,0.0,WeatherDisplay:10.37,2013-07-17 05:39:00,
2013-07-17 01:44:00,74.8,70.0,30.15,WNW,303,0.0,0.0,85,0.00,CLR,,0.00,0.0,WeatherDisplay:10.37,2013-07-17 05:44:00,
2013-07-17 01:49:00,74.8,70.0,30.15,WNW,303,0.0,0.0,85,0.00,CLR,,0.00,0.0,WeatherDisplay:10.37,2013-07-17 05:49:00,
2013-07-17 01:54:00,74.7,69.9,30.15,WNW,303,0.0,0.0,85,0.00,CLR,,0.00,0.0,WeatherDisplay:10.37,2013-07-17 05:54:00,
2013-07-17 01:59:00,74.6,70.1,30.15,WNW,303,0.0,0.0,86,0.00,FEW,,0.00,0.0,WeatherDisplay:10.37,2013-07-17 05:59:00,
2013-07-17 02:04:00,74.5,69.7,30.15,WNW,303,0.0,0.0,85,0.00,FEW,,0.00,0.0,WeatherDisplay:10.37,2013-07-17 06:04:00,
2013-07-17 02:09:00,74.4,69.6,30.15,WNW,303,0.0,0.0,85,0.00,FEW,,0.00,0.0,WeatherDisplay:10.37,2013-07-17 06:09:00,
2013-07-17 02:14:00,74.2,69.7,30.15,WNW,303,0.0,0.0,86,0.00,FEW,,0.00,0.0,WeatherDisplay:10.37,2013-07-17 06:14:00,
2013-07-17 02:19:00,74.1,69.6,30.15,WNW,303,0.0,0.0,86,0.00,FEW,,0.00,0.0,WeatherDisplay:10.37,2013-07-17 06:19:00,
2013-07-17 02:24:00,74.0,69.5,30.15,WNW,303,0.0,0.0,86,0.00,FEW,,0.00,0.0,WeatherDisplay:10.37,2013-07-17 06:24:00,
2013-07-17 02:29:00,73.9,69.4,30.15,WNW,303,0.0,0.0,86,0.00,FEW,,0.00,0.0,WeatherDisplay:10.37,2013-07-17 06:29:00,
2013-07-17 02:34:00,73.8,69.3,30.15,WNW,303,0.0,0.0,86,0.00,FEW,,0.00,0.0,WeatherDisplay:10.37,2013-07-17 06:34:00,
2013-07-17 02:39:00,73.7,69.6,30.15,WNW,303,0.0,0.0,87,0.00,FEW,,0.00,0.0,WeatherDisplay:10.37,2013-07-17 06:39:00,
2013-07-17 02:44:00,73.7,69.6,30.15,WNW,303,0.0,0.0,87,0.00,FEW,,0.00,0.0,WeatherDisplay:10.37,2013-07-17 06:44:00,
2013-07-17 02:49:00,73.7,69.6,30.15,WNW,303,0.0,0.0,87,0.00,FEW,,0.00,0.0,WeatherDisplay:10.37,2013-07-17 06:49:00,
2013-07-17 02:54:00,73.7,69.6,30.14,WNW,303,0.0,0.0,87,0.00,FEW,,0.00,0.0,WeatherDisplay:10.37,2013-07-17 06:54:00,
2013-07-17 02:59:00,73.6,69.5,30.14,WNW,303,0.0,0.0,87,0.00,FEW,,0.00,0.0,WeatherDisplay:10.37,2013-07-17 06:59:00,
2013-07-17 03:04:00,73.4,69.3,30.14,WNW,303,0.0,0.0,87,0.00,FEW,,0.00,0.0,WeatherDisplay:10.37,2013-07-17 07:04:00,
2013-07-17 03:09:00,73.3,69.5,30.15,WNW,303,0.0,0.0,88,0.00,FEW,,0.00,0.0,WeatherDisplay:10.37,2013-07-17 07:09:00,
2013-07-17 03:14:00,73.2,69.4,30.14,WNW,303,0.0,0.0,88,0.00,FEW,,0.00,0.0,WeatherDisplay:10.37,2013-07-17 07:14:00,
2013-07-17 03:19:00,73.2,69.4,30.14,WNW,303,0.0,0.0,88,0.00,FEW,,0.00,0.0,WeatherDisplay:10.37,2013-07-17 07:19:00,
2013-07-17 03:24:00,73.1,69.3,30.14,WNW,303,0.0,0.0,88,0.00,FEW,,0.00,0.0,WeatherDisplay:10.37,2013-07-17 07:24:00,
2013-07-17 03:29:00,73.1,69.7,30.14,WNW,303,0.0,0.0,89,0.00,FEW,,0.00,0.0,WeatherDisplay:10.37,2013-07-17 07:29:00,
2013-07-17 03:34:00,73.1,69.7,30.15,WNW,303,0.0,0.0,89,0.00,FEW,,0.00,0.0,WeatherDisplay:10.37,2013-07-17 07:34:00,
2013-07-17 03:39:00,73.0,69.6,30.15,WNW,303,0.0,0.0,89,0.00,FEW,,0.00,0.0,WeatherDisplay:10.37,2013-07-17 07:39:00,
2013-07-17 03:44:00,72.9,69.5,30.15,WNW,303,1.2,1.2,89,0.00,FEW,,0.00,0.0,WeatherDisplay:10.37,2013-07-17 07:44:00,
2013-07-17 03:49:00,72.8,69.4,30.15,WNW,303,0.0,0.0,89,0.00,FEW,,0.00,0.0,WeatherDisplay:10.37,2013-07-17 07:49:00,
2013-07-17 03:54:00,72.8,69.7,30.15,WNW,303,0.0,0.0,90,0.00,FEW,,0.00,0.0,WeatherDisplay:10.37,2013-07-17 07:54:00,
2013-07-17 03:59:00,72.8,69.7,30.15,WNW,303,0.0,0.0,90,0.00,FEW,,0.00,0.0,WeatherDisplay:10.37,2013-07-17 07:59:00,
2013-07-17 04:04:00,72.7,69.6,30.16,WNW,303,0.0,0.0,90,0.00,FEW,,0.00,0.0,WeatherDisplay:10.37,2013-07-17 08:04:00,
2013-07-17 04:09:00,72.6,69.5,30.16,WNW,303,0.0,0.0,90,0.00,FEW,,0.00,0.0,WeatherDisplay:10.37,2013-07-17 08:09:00,
2013-07-17 04:14:00,72.4,69.6,30.16,WNW,303,0.0,0.0,91,0.00,FEW,,0.00,0.0,WeatherDisplay:10.37,2013-07-17 08:14:00,
2013-07-17 04:19:00,72.3,69.5,30.16,WNW,303,0.0,0.0,91,0.00,FEW,,0.00,0.0,WeatherDisplay:10.37,2013-07-17 08:19:00,
2013-07-17 04:24:00,72.2,69.7,30.16,WNW,303,0.0,0.0,92,0.00,FEW,,0.00,0.0,WeatherDisplay:10.37,2013-07-17 08:24:00,
2013-07-17 04:29:00,72.2,69.7,30.16,WNW,303,0.0,0.0,92,0.00,FEW,,0.00,0.0,WeatherDisplay:10.37,2013-07-17 08:29:00,
2013-07-17 04:34:00,72.3,69.8,30.16,WNW,303,0.0,0.0,92,0.00,FEW,,0.00,0.0,WeatherDisplay:10.37,2013-07-17 08:34:00,
2013-07-17 04:39:00,72.3,69.8,30.16,WNW,303,0.0,0.0,92,0.00,FEW,,0.00,0.0,WeatherDisplay:10.37,2013-07-17 08:39:00,
2013-07-17 04:44:00,72.3,69.8,30.16,WNW,303,0.0,0.0,92,0.00,FEW,,0.00,0.0,WeatherDisplay:10.37,2013-07-17 08:44:00,
2013-07-17 04:49:00,72.2,69.4,30.16,WNW,303,0.0,0.0,91,0.00,FEW,,0.00,0.0,WeatherDisplay:10.37,2013-07-17 08:49:00,
2013-07-17 04:54:00,72.2,69.4,30.16,WNW,303,0.0,0.0,91,0.00,FEW,,0.00,0.0,WeatherDisplay:10.37,2013-07-17 08:54:00,
2013-07-17 04:59:00,72.1,69.3,30.16,WNW,303,0.0,0.0,91,0.00,FEW,,0.00,0.0,WeatherDisplay:10.37,2013-07-17 08:59:00,
2013-07-17 05:04:00,72.1,69.3,30.16,WNW,303,0.0,0.0,91,0.00,FEW,,0.00,0.0,WeatherDisplay:10.37,2013-07-17 09:04:00,
2013-07-17 05:09:00,72.1,69.3,30.16,WNW,303,0.0,0.0,91,0.00,FEW,,0.00,0.0,WeatherDisplay:10.37,2013-07-17 09:09:00,
2013-07-17 05:14:00,72.1,69.3,30.16,WNW,303,0.0,0.0,91,0.00,FEW,,0.00,0.0,WeatherDisplay:10.37,2013-07-17 09:14:00,
2013-07-17 05:19:00,72.1,69.0,30.16,WNW,303,0.0,0.0,90,0.00,FEW,,0.00,0.0,WeatherDisplay:10.37,2013-07-17 09:19:00,
2013-07-17 05:24:00,72.1,69.0,30.16,WNW,303,0.0,0.0,90,0.00,FEW,,0.00,0.0,WeatherDisplay:10.37,2013-07-17 09:24:00,
2013-07-17 05:29:00,71.9,68.8,30.17,WNW,303,0.0,0.0,90,0.00,FEW,,0.00,0.0,WeatherDisplay:10.37,2013-07-17 09:29:00,
2013-07-17 05:34:00,71.8,69.0,30.17,WNW,303,0.0,0.0,91,0.00,FEW,,0.00,0.0,WeatherDisplay:10.37,2013-07-17 09:34:00,
2013-07-17 05:39:00,71.8,69.0,30.17,WNW,303,0.0,0.0,91,0.00,FEW,,0.00,0.0,WeatherDisplay:10.37,2013-07-17 09:39:00,
2013-07-17 05:44:00,71.7,68.9,30.17,WNW,303,0.0,0.0,91,0.00,FEW,,0.00,0.0,WeatherDisplay:10.37,2013-07-17 09:44:00,
2013-07-17 05:49:00,71.8,69.0,30.17,WNW,303,0.0,0.0,91,0.00,FEW,,0.00,0.0,WeatherDisplay:10.37,2013-07-17 09:49:00,
2013-07-17 05:54:00,71.9,69.1,30.17,WNW,303,0.0,0.0,91,0.00,FEW,,0.00,0.0,WeatherDisplay:10.37,2013-07-17 09:54:00,
2013-07-17 05:59:00,72.0,69.2,30.18,WNW,303,0.0,0.0,91,0.00,CLR,,0.00,7.0,WeatherDisplay:10.37,2013-07-17 09:59:00,
2013-07-17 06:04:00,72.0,69.2,30.18,WNW,303,0.0,0.0,91,0.00,CLR,,0.00,11.0,WeatherDisplay:10.37,2013-07-17 10:04:00,
2013-07-17 06:09:00,71.9,69.1,30.18,WNW,303,0.0,0.0,91,0.00,CLR,,0.00,14.0,WeatherDisplay:10.37,2013-07-17 10:09:00,
2013-07-17 06:14:00,71.9,69.1,30.18,WNW,303,0.0,0.0,91,0.00,CLR,,0.00,18.0,WeatherDisplay:10.37,2013-07-17 10:14:00,
2013-07-17 06:19:00,72.0,69.2,30.18,WNW,288,0.0,0.1,91,0.00,CLR,,0.00,23.0,WeatherDisplay:10.37,2013-07-17 10:19:00,
2013-07-17 06:24:00,72.1,69.3,30.18,WNW,288,0.0,0.0,91,0.00,CLR,,0.00,26.0,WeatherDisplay:10.37,2013-07-17 10:24:00,
2013-07-17 06:29:00,72.2,69.4,30.18,WNW,288,0.0,0.0,91,0.00,CLR,,0.00,30.0,WeatherDisplay:10.37,2013-07-17 10:29:00,
2013-07-17 06:34:00,72.4,69.6,30.19,WNW,288,0.0,0.0,91,0.00,CLR,,0.00,60.0,WeatherDisplay:10.37,2013-07-17 10:34:00,
2013-07-17 06:39:00,73.0,69.6,30.19,WNW,288,0.0,0.0,89,0.00,CLR,,0.00,70.0,WeatherDisplay:10.37,2013-07-17 10:39:00,
2013-07-17 06:44:00,73.9,70.1,30.19,WNW,288,0.0,0.0,88,0.00,CLR,,0.00,81.0,WeatherDisplay:10.37,2013-07-17 10:44:00,
2013-07-17 06:49:00,74.2,70.1,30.19,WNW,288,0.0,0.0,87,0.00,CLR,,0.00,90.0,WeatherDisplay:10.37,2013-07-17 10:49:00,
2013-07-17 06:54:00,74.3,69.8,30.19,WNW,288,0.0,0.0,86,0.00,CLR,,0.00,100.0,WeatherDisplay:10.37,2013-07-17 10:54:00,
2013-07-17 06:59:00,75.0,70.2,30.19,WNW,288,0.0,0.0,85,0.00,FEW,,0.00,113.0,WeatherDisplay:10.37,2013-07-17 10:59:00,
2013-07-17 07:04:00,75.6,70.4,30.19,WNW,288,0.0,0.0,84,0.00,FEW,,0.00,123.0,WeatherDisplay:10.37,2013-07-17 11:04:00,
2013-07-17 07:09:00,76.2,70.7,30.19,WNW,288,0.0,0.0,83,0.00,FEW,,0.00,132.0,WeatherDisplay:10.37,2013-07-17 11:09:00,
2013-07-17 07:14:00,76.8,70.9,30.19,WNW,288,0.0,0.0,82,0.00,FEW,,0.00,142.0,WeatherDisplay:10.37,2013-07-17 11:14:00,
2013-07-17 07:19:00,77.7,71.0,30.19,WNW,288,0.0,0.0,80,0.00,FEW,,0.00,153.0,WeatherDisplay:10.37,2013-07-17 11:19:00,
2013-07-17 07:24:00,78.3,71.6,30.19,WNW,288,0.0,0.0,80,0.00,FEW,,0.00,163.0,WeatherDisplay:10.37,2013-07-17 11:24:00,
2013-07-17 07:29:00,78.8,71.4,30.20,WNW,288,0.0,0.0,78,0.00,FEW,,0.00,179.0,WeatherDisplay:10.37,2013-07-17 11:29:00,
2013-07-17 07:34:00,79.4,71.6,30.20,WNW,288,0.0,0.0,77,0.00,FEW,,0.00,195.0,WeatherDisplay:10.37,2013-07-17 11:34:00,
2013-07-17 07:39:00,80.0,71.4,30.20,WNW,288,0.0,0.0,75,0.00,FEW,,0.00,207.0,WeatherDisplay:10.37,2013-07-17 11:39:00,
2013-07-17 07:44:00,80.5,70.6,30.20,WNW,288,0.0,0.0,72,0.00,FEW,,0.00,218.0,WeatherDisplay:10.37,2013-07-17 11:44:00,
2013-07-17 07:49:00,80.8,71.7,30.19,WNW,290,1.2,0.0,74,0.00,FEW,,0.00,236.0,WeatherDisplay:10.37,2013-07-17 11:49:00,
2013-07-17 07:54:00,81.1,71.2,30.20,WNW,290,0.0,0.0,72,0.00,FEW,,0.00,248.0,WeatherDisplay:10.37,2013-07-17 11:54:00,
2013-07-17 07:59:00,81.5,70.8,30.20,WNW,290,0.0,0.0,70,0.00,CLR,,0.00,257.0,WeatherDisplay:10.37,2013-07-17 11:59:00,
2013-07-17 08:04:00,82.0,72.1,30.20,WNW,290,1.2,0.0,72,0.00,CLR,,0.00,258.0,WeatherDisplay:10.37,2013-07-17 12:04:00,
2013-07-17 08:09:00,82.4,71.2,30.20,WNW,290,1.2,0.0,69,0.00,CLR,,0.00,260.0,WeatherDisplay:10.37,2013-07-17 12:09:00,
2013-07-17 08:14:00,82.7,71.5,30.20,WNW,290,0.0,0.0,69,0.00,CLR,,0.00,267.0,WeatherDisplay:10.37,2013-07-17 12:14:00,
2013-07-17 08:19:00,83.1,71.9,30.20,WNW,290,1.2,1.2,69,0.00,CLR,,0.00,278.0,WeatherDisplay:10.37,2013-07-17 12:19:00,
2013-07-17 08:24:00,83.3,72.1,30.20,WNW,290,1.2,1.2,69,0.00,CLR,,0.00,288.0,WeatherDisplay:10.37,2013-07-17 12:24:00,
2013-07-17 08:29:00,83.7,70.7,30.21,NW,309,1.2,1.2,65,0.00,CLR,,0.00,320.0,WeatherDisplay:10.37,2013-07-17 12:29:00,
2013-07-17 08:34:00,83.8,71.2,30.21,NW,309,1.0,1.0,66,0.00,CLR,,0.00,339.0,WeatherDisplay:10.37,2013-07-17 12:34:00,
2013-07-17 08:39:00,83.9,70.9,30.21,NW,309,0.0,0.3,65,0.00,CLR,,0.00,332.0,WeatherDisplay:10.37,2013-07-17 12:39:00,
2013-07-17 08:44:00,83.8,71.7,30.21,NW,309,1.2,1.2,67,0.00,CLR,,0.00,330.0,WeatherDisplay:10.37,2013-07-17 12:44:00,
2013-07-17 08:49:00,83.8,72.1,30.21,NW,309,1.2,0.0,68,0.00,CLR,,0.00,360.0,WeatherDisplay:10.37,2013-07-17 12:49:00,
2013-07-17 08:54:00,84.1,72.0,30.21,NW,310,1.2,1.2,67,0.00,CLR,,0.00,403.0,WeatherDisplay:10.37,2013-07-17 12:54:00,
2013-07-17 08:59:00,84.3,72.6,30.21,NNW,338,1.2,0.0,68,0.00,CLR,,0.00,418.0,WeatherDisplay:10.37,2013-07-17 12:59:00,
2013-07-17 09:04:00,84.6,72.9,30.21,NNW,342,2.3,2.3,68,0.00,CLR,,0.00,427.0,WeatherDisplay:10.37,2013-07-17 13:04:00,
2013-07-17 09:09:00,84.8,73.1,30.21,NNW,340,2.3,2.3,68,0.00,CLR,,0.00,429.0,WeatherDisplay:10.37,2013-07-17 13:09:00,
2013-07-17 09:14:00,84.9,72.7,30.21,NNW,337,3.0,3.0,67,0.00,CLR,,0.00,438.0,WeatherDisplay:10.37,2013-07-17 13:14:00,
2013-07-17 09:19:00,85.0,73.3,30.21,NW,321,4.6,4.6,68,0.00,CLR,,0.00,439.0,WeatherDisplay:10.37,2013-07-17 13:19:00,
2013-07-17 09:24:00,85.4,73.6,30.21,NW,321,1.0,1.0,68,0.00,CLR,,0.00,445.0,WeatherDisplay:10.37,2013-07-17 13:24:00,
2013-07-17 09:29:00,85.6,74.3,30.21,NNW,330,5.0,5.0,69,0.00,CLR,,0.00,448.0,WeatherDisplay:10.37,2013-07-17 13:29:00,
2013-07-17 09:34:00,85.0,73.7,30.21,North,5,3.5,3.5,69,0.00,CLR,,0.00,454.0,WeatherDisplay:10.37,2013-07-17 13:34:00,
2013-07-17 09:39:00,85.2,73.9,30.22,North,5,2.3,2.3,69,0.00,CLR,,0.00,457.0,WeatherDisplay:10.37,2013-07-17 13:39:00,
2013-07-17 09:44:00,85.7,74.4,30.21,NNW,333,3.5,3.5,69,0.00,CLR,,0.00,464.0,WeatherDisplay:10.37,2013-07-17 13:44:00,
2013-07-17 09:49:00,85.8,75.7,30.21,NNW,328,4.6,4.6,72,0.00,CLR,,0.00,475.0,WeatherDisplay:10.37,2013-07-17 13:49:00,
2013-07-17 09:54:00,86.3,74.5,30.21,NNW,328,2.3,2.3,68,0.00,CLR,,0.00,483.0,WeatherDisplay:10.37,2013-07-17 13:54:00,
2013-07-17 10:00:00,86.6,74.3,30.21,North,5,2.3,2.3,67,0.00,CLR,,0.00,496.0,WeatherDisplay:10.37,2013-07-17 14:00:00,
2013-07-17 10:05:00,86.9,75.1,30.21,NNW,345,3.5,3.5,68,0.00,CLR,,0.00,513.0,WeatherDisplay:10.37,2013-07-17 14:05:00,
2013-07-17 10:10:00,86.7,75.7,30.21,NNW,331,4.6,4.6,70,0.00,CLR,,0.00,534.0,WeatherDisplay:10.37,2013-07-17 14:10:00,
2013-07-17 10:15:00,87.2,74.5,30.22,NW,306,6.9,6.9,66,0.00,CLR,,0.00,550.0,WeatherDisplay:10.37,2013-07-17 14:15:00,
2013-07-17 10:20:00,87.7,72.6,30.22,NNE,30,3.5,3.5,61,0.00,CLR,,0.00,577.0,WeatherDisplay:10.37,2013-07-17 14:20:00,
2013-07-17 10:25:00,88.1,72.0,30.22,NNE,13,3.5,3.5,59,0.00,CLR,,0.00,603.0,WeatherDisplay:10.37,2013-07-17 14:25:00,
2013-07-17 10:30:00,87.5,72.9,30.22,NNW,336,5.8,5.8,62,0.00,CLR,,0.00,631.0,WeatherDisplay:10.37,2013-07-17 14:30:00,
2013-07-17 10:35:00,87.7,73.1,30.22,NNW,331,3.5,3.5,62,0.00,CLR,,0.00,650.0,WeatherDisplay:10.37,2013-07-17 14:35:00,
2013-07-17 10:40:00,88.8,72.6,30.22,NNE,24,3.5,3.5,59,0.00,CLR,,0.00,668.0,WeatherDisplay:10.37,2013-07-17 14:40:00,
2013-07-17 10:45:00,88.8,73.1,30.21,ENE,71,2.3,2.3,60,0.00,CLR,,0.00,689.0,WeatherDisplay:10.37,2013-07-17 14:45:00,
2013-07-17 10:50:00,89.3,72.6,30.21,NW,316,3.5,3.5,58,0.00,CLR,,0.00,705.0,WeatherDisplay:10.37,2013-07-17 14:50:00,
2013-07-17 10:55:00,89.4,73.2,30.21,NW,306,8.0,8.0,59,0.00,CLR,,0.00,714.0,WeatherDisplay:10.37,2013-07-17 14:55:00,
2013-07-17 11:00:00,88.3,74.1,30.21,NNW,335,8.1,8.1,63,0.00,CLR,,0.00,728.0,WeatherDisplay:10.37,2013-07-17 15:00:00,
2013-07-17 11:05:00,88.2,73.5,30.21,NNW,327,2.3,2.3,62,0.00,CLR,,0.00,737.0,WeatherDisplay:10.37,2013-07-17 15:05:00,
2013-07-17 11:10:00,88.9,72.7,30.21,NNE,26,3.5,3.5,59,0.00,CLR,,0.00,747.0,WeatherDisplay:10.37,2013-07-17 15:10:00,
2013-07-17 11:15:00,89.2,73.0,30.21,NNW,337,8.1,8.1,59,0.00,CLR,,0.00,747.0,WeatherDisplay:10.37,2013-07-17 15:15:00,
2013-07-17 11:20:00,89.5,73.8,30.21,NW,324,7.0,7.0,60,0.00,CLR,,0.00,752.0,WeatherDisplay:10.37,2013-07-17 15:20:00,
2013-07-17 11:25:00,89.1,72.9,30.21,NNW,328,8.1,8.1,59,0.00,CLR,,0.00,747.0,WeatherDisplay:10.37,2013-07-17 15:25:00,
2013-07-17 11:30:00,88.6,73.4,30.21,NNW,329,9.2,9.2,61,0.00,CLR,,0.00,780.0,WeatherDisplay:10.37,2013-07-17 15:30:00,
2013-07-17 11:35:00,88.7,72.5,30.21,NW,320,8.1,8.1,59,0.00,CLR,,0.00,777.0,WeatherDisplay:10.37,2013-07-17 15:35:00,
2013-07-17 11:40:00,88.4,72.7,30.20,NNW,334,3.5,3.5,60,0.00,CLR,,0.00,773.0,WeatherDisplay:10.37,2013-07-17 15:40:00,
2013-07-17 11:45:00,87.9,72.3,30.20,NNW,327,7.0,7.0,60,0.00,CLR,,0.00,784.0,WeatherDisplay:10.37,2013-07-17 15:45:00,
2013-07-17 11:50:00,88.3,72.7,30.20,NNW,342,5.8,5.8,60,0.00,CLR,,0.00,823.0,WeatherDisplay:10.37,2013-07-17 15:50:00,
2013-07-17 11:55:00,89.5,72.8,30.20,NNE,22,2.3,2.3,58,0.00,CLR,,0.00,817.0,WeatherDisplay:10.37,2013-07-17 15:55:00,
2013-07-17 12:00:00,89.1,72.4,30.20,NW,322,5.8,5.8,58,0.00,CLR,,0.00,791.0,WeatherDisplay:10.37,2013-07-17 16:00:00,
2013-07-17 12:05:00,89.7,73.0,30.20,North,11,3.0,3.0,58,0.00,CLR,,0.00,821.0,WeatherDisplay:10.37,2013-07-17 16:05:00,
2013-07-17 12:10:00,89.9,75.1,30.20,NNE,27,2.3,2.3,62,0.00,CLR,,0.00,828.0,WeatherDisplay:10.37,2013-07-17 16:10:00,
2013-07-17 12:15:00,90.4,74.1,30.20,NNW,336,4.6,4.6,59,0.00,CLR,,0.00,840.0,WeatherDisplay:10.37,2013-07-17 16:15:00,
2013-07-17 12:20:00,90.7,73.4,30.20,NNE,27,2.3,2.3,57,0.00,CLR,,0.00,854.0,WeatherDisplay:10.37,2013-07-17 16:20:00,
2013-07-17 12:25:00,90.3,72.5,30.20,ENE,59,3.5,3.5,56,0.00,CLR,,0.00,835.0,WeatherDisplay:10.37,2013-07-17 16:25:00,
2013-07-17 12:30:00,90.2,71.8,30.19,NE,44,1.0,3.0,55,0.00,CLR,,0.00,851.0,WeatherDisplay:10.37,2013-07-17 16:30:00,
2013-07-17 12:35:00,90.1,72.3,30.19,NE,38,2.0,2.0,56,0.00,CLR,,0.00,847.0,WeatherDisplay:10.37,2013-07-17 16:35:00,
2013-07-17 12:40:00,90.1,72.3,30.19,North,6,1.0,3.0,56,0.00,CLR,,0.00,865.0,WeatherDisplay:10.37,2013-07-17 16:40:00,
2013-07-17 12:45:00,89.7,71.9,30.19,NNE,14,4.6,4.6,56,0.00,CLR,,0.00,833.0,WeatherDisplay:10.37,2013-07-17 16:45:00,
2013-07-17 12:50:00,89.6,72.4,30.19,NW,307,5.0,10.0,57,0.00,CLR,,0.00,853.0,WeatherDisplay:10.37,2013-07-17 16:50:00,
2013-07-17 12:55:00,89.9,73.7,30.19,WNW,296,6.9,6.9,59,0.00,CLR,,0.00,867.0,WeatherDisplay:10.37,2013-07-17 16:55:00,
2013-07-17 13:00:00,90.4,74.1,30.19,NW,304,6.9,6.9,59,0.00,CLR,,0.00,868.0,WeatherDisplay:10.37,2013-07-17 17:00:00,
2013-07-17 13:05:00,90.2,73.4,30.19,NW,306,8.1,8.1,58,0.00,CLR,,0.00,854.0,WeatherDisplay:10.37,2013-07-17 17:05:00,
2013-07-17 13:10:00,90.4,73.6,30.19,NNE,30,2.3,2.3,58,0.00,CLR,,0.00,872.0,WeatherDisplay:10.37,2013-07-17 17:10:00,
2013-07-17 13:15:00,91.0,73.7,30.19,NNW,333,3.5,3.5,57,0.00,CLR,,0.00,831.0,WeatherDisplay:10.37,2013-07-17 17:15:00,
2013-07-17 13:20:00,90.0,74.7,30.19,NNW,333,3.5,3.5,61,0.00,CLR,,0.00,842.0,WeatherDisplay:10.37,2013-07-17 17:20:00,
2013-07-17 13:25:00,90.2,72.9,30.19,NW,317,2.3,2.3,57,0.00,CLR,,0.00,870.0,WeatherDisplay:10.37,2013-07-17 17:25:00,
2013-07-17 13:30:00,90.5,72.7,30.19,NW,323,3.5,3.5,56,0.00,CLR,,0.00,877.0,WeatherDisplay:10.37,2013-07-17 17:30:00,
2013-07-17 13:35:00,90.2,76.4,30.19,NNW,336,5.8,5.8,64,0.00,CLR,,0.00,872.0,WeatherDisplay:10.37,2013-07-17 17:35:00,
2013-07-17 13:40:00,90.1,70.7,30.18,North,355,2.3,2.3,53,0.00,CLR,,0.00,853.0,WeatherDisplay:10.37,2013-07-17 17:40:00,
2013-07-17 13:45:00,90.6,72.2,30.18,NNW,332,5.0,5.0,55,0.00,CLR,,0.00,875.0,WeatherDisplay:10.37,2013-07-17 17:45:00,
2013-07-17 13:50:00,90.5,71.0,30.18,ENE,66,1.2,1.2,53,0.00,CLR,,0.00,870.0,WeatherDisplay:10.37,2013-07-17 17:50:00,
2013-07-17 13:55:00,91.2,73.3,30.18,NNW,334,5.8,5.8,56,0.00,CLR,,0.00,861.0,WeatherDisplay:10.37,2013-07-17 17:55:00,
2013-07-17 14:00:00,91.0,71.5,30.18,NNW,333,1.0,7.0,53,0.00,CLR,,0.00,828.0,WeatherDisplay:10.37,2013-07-17 18:00:00,
2013-07-17 14:05:00,91.2,70.5,30.18,North,355,2.3,2.3,51,0.00,CLR,,0.00,856.0,WeatherDisplay:10.37,2013-07-17 18:05:00,
2013-07-17 14:10:00,91.5,71.4,30.18,WNW,292,6.9,6.9,52,0.00,CLR,,0.00,872.0,WeatherDisplay:10.37,2013-07-17 18:10:00,
2013-07-17 14:15:00,91.0,71.5,30.17,NNW,338,2.3,2.3,53,0.00,CLR,,0.00,840.0,WeatherDisplay:10.37,2013-07-17 18:15:00,
2013-07-17 14:20:00,91.3,72.9,30.17,NNW,327,5.8,5.8,55,0.00,CLR,,0.00,846.0,WeatherDisplay:10.37,2013-07-17 18:20:00,
2013-07-17 14:25:00,91.4,73.0,30.17,NW,313,5.0,5.0,55,0.00,CLR,,0.00,847.0,WeatherDisplay:10.37,2013-07-17 18:25:00,
2013-07-17 14:30:00,92.2,70.9,30.17,SSW,207,3.5,3.5,50,0.00,CLR,,0.00,821.0,WeatherDisplay:10.37,2013-07-17 18:30:00,
2013-07-17 14:35:00,92.0,73.5,30.17,NW,312,6.0,6.0,55,0.00,CLR,,0.00,784.0,WeatherDisplay:10.37,2013-07-17 18:35:00,
2013-07-17 14:40:00,92.2,75.3,30.17,NW,309,5.8,5.8,58,0.00,CLR,,0.00,708.0,WeatherDisplay:10.37,2013-07-17 18:40:00,
2013-07-17 14:45:00,92.0,71.9,30.17,WNW,296,5.8,5.8,52,0.00,CLR,,0.00,668.0,WeatherDisplay:10.37,2013-07-17 18:45:00,
2013-07-17 14:50:00,91.7,72.7,30.16,NW,309,9.2,9.2,54,0.00,CLR,,0.00,710.0,WeatherDisplay:10.37,2013-07-17 18:50:00,
2013-07-17 14:55:00,91.4,71.9,30.16,NNW,346,2.3,2.3,53,0.00,CLR,,0.00,759.0,WeatherDisplay:10.37,2013-07-17 18:55:00,
2013-07-17 15:00:00,91.3,72.3,30.16,NW,311,6.0,6.0,54,0.00,CLR,,0.00,798.0,WeatherDisplay:10.37,2013-07-17 19:00:00,
2013-07-17 15:05:00,91.7,71.6,30.16,NNW,340,5.8,5.8,52,0.00,CLR,,0.00,788.0,WeatherDisplay:10.37,2013-07-17 19:05:00,
2013-07-17 15:10:00,92.1,72.5,30.16,NNW,341,3.5,3.5,53,0.00,CLR,,0.00,766.0,WeatherDisplay:10.37,2013-07-17 19:10:00,
2013-07-17 15:15:00,91.6,71.5,30.16,NE,56,2.3,2.3,52,0.00,CLR,,0.00,749.0,WeatherDisplay:10.37,2013-07-17 19:15:00,
2013-07-17 15:20:00,91.6,71.5,30.16,NNW,327,3.5,3.5,52,0.00,CLR,,0.00,747.0,WeatherDisplay:10.37,2013-07-17 19:20:00,
2013-07-17 15:25:00,92.2,72.0,30.15,NNW,328,5.8,5.8,52,0.00,CLR,,0.00,765.0,WeatherDisplay:10.37,2013-07-17 19:25:00,
2013-07-17 15:30:00,92.2,74.2,30.15,NW,323,6.9,6.9,56,0.00,CLR,,0.00,752.0,WeatherDisplay:10.37,2013-07-17 19:30:00,
2013-07-17 15:35:00,92.6,71.2,30.15,NNW,340,3.5,3.5,50,0.00,CLR,,0.00,735.0,WeatherDisplay:10.37,2013-07-17 19:35:00,
2013-07-17 15:40:00,92.1,70.8,30.15,East,89,2.3,2.3,50,0.00,CLR,,0.00,714.0,WeatherDisplay:10.37,2013-07-17 19:40:00,
2013-07-17 15:45:00,92.4,70.5,30.14,NNW,329,2.3,2.3,49,0.00,CLR,,0.00,696.0,WeatherDisplay:10.37,2013-07-17 19:45:00,
2013-07-17 15:50:00,92.9,70.3,30.14,NW,304,6.0,6.0,48,0.00,CLR,,0.00,714.0,WeatherDisplay:10.37,2013-07-17 19:50:00,
2013-07-17 15:55:00,92.6,70.0,30.14,NW,306,5.8,5.8,48,0.00,CLR,,0.00,707.0,WeatherDisplay:10.37,2013-07-17 19:55:00,
2013-07-17 16:00:00,92.4,69.9,30.14,NW,306,5.8,5.8,48,0.00,CLR,,0.00,700.0,WeatherDisplay:10.37,2013-07-17 20:00:00,
2013-07-17 16:05:00,92.7,71.9,30.14,NW,317,5.8,5.8,51,0.00,CLR,,0.00,693.0,WeatherDisplay:10.37,2013-07-17 20:05:00,
2013-07-17 16:10:00,92.6,68.8,30.14,NNW,331,3.5,3.5,46,0.00,CLR,,0.00,675.0,WeatherDisplay:10.37,2013-07-17 20:10:00,
2013-07-17 16:15:00,92.1,71.4,30.13,NNW,333,3.5,3.5,51,0.00,CLR,,0.00,650.0,WeatherDisplay:10.37,2013-07-17 20:15:00,
2013-07-17 16:20:00,91.8,70.5,30.13,WNW,288,5.8,5.8,50,0.00,CLR,,0.00,650.0,WeatherDisplay:10.37,2013-07-17 20:20:00,
2013-07-17 16:25:00,92.2,75.3,30.13,NNW,335,4.6,4.6,58,0.00,CLR,,0.00,638.0,WeatherDisplay:10.37,2013-07-17 20:25:00,
2013-07-17 16:30:00,92.4,71.6,30.13,NNW,334,1.2,1.2,51,0.00,CLR,,0.00,628.0,WeatherDisplay:10.37,2013-07-17 20:30:00,
2013-07-17 16:35:00,92.9,72.1,30.13,NW,309,3.5,3.9,51,0.00,CLR,,0.00,619.0,WeatherDisplay:10.37,2013-07-17 20:35:00,
2013-07-17 16:40:00,92.4,70.5,30.13,WNW,290,3.5,3.5,49,0.00,CLR,,0.00,599.0,WeatherDisplay:10.37,2013-07-17 20:40:00,
2013-07-17 16:45:00,92.4,69.9,30.13,WNW,294,3.5,3.5,48,0.00,CLR,,0.00,589.0,WeatherDisplay:10.37,2013-07-17 20:45:00,
2013-07-17 16:50:00,92.7,71.3,30.13,NW,313,5.8,5.8,50,0.00,CLR,,0.00,580.0,WeatherDisplay:10.37,2013-07-17 20:50:00,
2013-07-17 16:55:00,92.8,69.0,30.13,WNW,301,3.5,3.5,46,0.00,CLR,,0.00,557.0,WeatherDisplay:10.37,2013-07-17 20:55:00,
2013-07-17 17:01:00,92.8,69.6,30.13,WNW,289,3.5,3.5,47,0.00,CLR,,0.00,545.0,WeatherDisplay:10.37,2013-07-17 21:01:00,
2013-07-17 17:06:00,92.7,70.1,30.13,NW,313,8.1,8.1,48,0.00,CLR,,0.00,529.0,WeatherDisplay:10.37,2013-07-17 21:06:00,
2013-07-17 17:11:00,92.1,69.6,30.13,West,271,3.5,3.5,48,0.00,CLR,,0.00,512.0,WeatherDisplay:10.37,2013-07-17 21:11:00,
2013-07-17 17:16:00,92.4,71.6,30.13,WSW,257,3.5,3.5,51,0.00,CLR,,0.00,504.0,WeatherDisplay:10.37,2013-07-17 21:16:00,
2013-07-17 17:21:00,92.5,72.3,30.12,NW,322,3.5,3.5,52,0.00,CLR,,0.00,483.0,WeatherDisplay:10.37,2013-07-17 21:21:00,
2013-07-17 17:26:00,92.4,71.1,30.12,NW,317,6.9,6.9,50,0.00,CLR,,0.00,476.0,WeatherDisplay:10.37,2013-07-17 21:26:00,
2013-07-17 17:31:00,92.1,70.2,30.12,NNW,340,2.3,2.3,49,0.00,CLR,,0.00,457.0,WeatherDisplay:10.37,2013-07-17 21:31:00,
2013-07-17 17:36:00,92.3,71.0,30.12,SSE,148,2.3,2.3,50,0.00,CLR,,0.00,446.0,WeatherDisplay:10.37,2013-07-17 21:36:00,
2013-07-17 17:41:00,92.3,69.8,30.12,NW,313,3.5,3.5,48,0.00,CLR,,0.00,434.0,WeatherDisplay:10.37,2013-07-17 21:41:00,
2013-07-17 17:46:00,92.3,69.8,30.11,WNW,283,3.5,3.5,48,0.00,CLR,,0.00,418.0,WeatherDisplay:10.37,2013-07-17 21:46:00,
2013-07-17 17:51:00,92.5,70.6,30.11,NW,311,3.5,3.6,49,0.00,CLR,,0.00,404.0,WeatherDisplay:10.37,2013-07-17 21:51:00,
2013-07-17 17:56:00,92.2,70.3,30.11,WNW,298,3.5,3.5,49,0.00,CLR,,0.00,387.0,WeatherDisplay:10.37,2013-07-17 21:56:00,
2013-07-17 18:01:00,92.1,69.6,30.11,SW,230,3.5,3.5,48,0.00,CLR,,0.00,374.0,WeatherDisplay:10.37,2013-07-17 22:01:00,
2013-07-17 18:06:00,92.4,71.1,30.11,NW,308,3.5,3.5,50,0.00,CLR,,0.00,355.0,WeatherDisplay:10.37,2013-07-17 22:06:00,
2013-07-17 18:11:00,92.4,71.1,30.11,WNW,300,1.2,1.2,50,0.00,CLR,,0.00,341.0,WeatherDisplay:10.37,2013-07-17 22:11:00,
2013-07-17 18:16:00,92.4,72.2,30.11,West,276,2.3,2.3,52,0.00,CLR,,0.00,325.0,WeatherDisplay:10.37,2013-07-17 22:16:00,
2013-07-17 18:21:00,92.7,72.5,30.11,NW,325,3.5,3.5,52,0.00,CLR,,0.00,315.0,WeatherDisplay:10.37,2013-07-17 22:21:00,
2013-07-17 18:26:00,92.6,70.6,30.11,NW,325,1.2,1.2,49,0.00,CLR,,0.00,297.0,WeatherDisplay:10.37,2013-07-17 22:26:00,
2013-07-17 18:31:00,92.6,70.0,30.11,NW,325,2.3,2.3,48,0.00,CLR,,0.00,281.0,WeatherDisplay:10.37,2013-07-17 22:31:00,
2013-07-17 18:36:00,92.6,68.8,30.11,SW,232,1.2,1.2,46,0.00,CLR,,0.00,269.0,WeatherDisplay:10.37,2013-07-17 22:36:00,
2013-07-17 18:41:00,92.3,71.0,30.11,SW,222,2.0,2.0,50,0.00,CLR,,0.00,253.0,WeatherDisplay:10.37,2013-07-17 22:41:00,
2013-07-17 18:46:00,92.4,71.6,30.11,SW,225,3.5,3.5,51,0.00,CLR,,0.00,237.0,WeatherDisplay:10.37,2013-07-17 22:46:00,
2013-07-17 18:51:00,92.7,70.1,30.10,SW,225,1.2,0.0,48,0.00,CLR,,0.00,223.0,WeatherDisplay:10.37,2013-07-17 22:51:00,
2013-07-17 18:56:00,93.2,70.0,30.10,SW,225,1.2,0.0,47,0.00,CLR,,0.00,211.0,WeatherDisplay:10.37,2013-07-17 22:56:00,
2013-07-17 19:01:00,93.5,68.3,30.10,WNW,302,1.0,1.0,44,0.00,CLR,,0.00,195.0,WeatherDisplay:10.37,2013-07-17 23:01:00,
2013-07-17 19:06:00,93.3,69.4,30.10,WNW,302,0.0,0.0,46,0.00,CLR,,0.00,183.0,WeatherDisplay:10.37,2013-07-17 23:06:00,
2013-07-17 19:11:00,93.1,69.9,30.10,WSW,242,0.0,0.0,47,0.00,CLR,,0.00,165.0,WeatherDisplay:10.37,2013-07-17 23:11:00,
2013-07-17 19:16:00,92.8,69.6,30.10,WSW,242,1.2,1.2,47,0.00,CLR,,0.00,149.0,WeatherDisplay:10.37,2013-07-17 23:16:00,
2013-07-17 19:21:00,92.4,70.5,30.10,WSW,242,0.0,0.0,49,0.00,CLR,,0.00,37.0,WeatherDisplay:10.37,2013-07-17 23:21:00,
2013-07-17 19:26:00,91.6,71.5,30.10,WSW,242,1.2,0.0,52,0.00,CLR,,0.00,33.0,WeatherDisplay:10.37,2013-07-17 23:26:00,
2013-07-17 19:31:00,90.8,71.3,30.10,WSW,242,0.0,0.0,53,0.00,CLR,,0.00,32.0,WeatherDisplay:10.37,2013-07-17 23:31:00,
2013-07-17 19:36:00,90.1,72.3,30.10,WSW,242,0.0,0.0,56,0.00,CLR,,0.00,30.0,WeatherDisplay:10.37,2013-07-17 23:36:00,
2013-07-17 19:41:00,89.3,71.5,30.10,WSW,242,0.0,0.0,56,0.00,CLR,,0.00,28.0,WeatherDisplay:10.37,2013-07-17 23:41:00,
2013-07-17 19:46:00,88.6,70.9,30.10,WSW,242,0.0,0.0,56,0.00,CLR,,0.00,25.0,WeatherDisplay:10.37,2013-07-17 23:46:00,
2013-07-17 19:51:00,88.1,71.5,30.10,WSW,242,0.0,0.0,58,0.00,CLR,,0.00,21.0,WeatherDisplay:10.37,2013-07-17 23:51:00,
2013-07-17 19:56:00,87.8,70.7,30.10,SSW,198,1.2,1.2,57,0.00,CLR,,0.00,14.0,WeatherDisplay:10.37,2013-07-17 23:56:00,
2013-07-17 20:01:00,87.7,71.6,30.10,SSW,198,0.0,0.0,59,0.00,CLR,,0.00,11.0,WeatherDisplay:10.37,2013-07-18 00:01:00,
2013-07-17 20:06:00,87.5,73.3,30.09,SSW,192,0.0,0.0,63,0.00,CLR,,0.00,9.0,WeatherDisplay:10.37,2013-07-18 00:06:00,
2013-07-17 20:11:00,87.1,72.5,30.09,SSW,192,0.0,0.0,62,0.00,CLR,,0.00,5.0,WeatherDisplay:10.37,2013-07-18 00:11:00,
2013-07-17 20:16:00,86.8,72.7,30.09,SSW,192,0.0,0.0,63,0.00,CLR,,0.00,0.0,WeatherDisplay:10.37,2013-07-18 00:16:00,
2013-07-17 20:21:00,86.3,72.2,30.09,SSW,192,0.0,0.0,63,0.00,CLR,,0.00,0.0,WeatherDisplay:10.37,2013-07-18 00:21:00,
2013-07-17 20:26:00,85.9,70.9,30.08,SSW,192,1.2,0.0,61,0.00,CLR,,0.00,0.0,WeatherDisplay:10.37,2013-07-18 00:26:00,
2013-07-17 20:31:00,85.8,70.8,30.08,SSW,192,0.0,0.0,61,0.00,CLR,,0.00,0.0,WeatherDisplay:10.37,2013-07-18 00:31:00,
2013-07-17 20:36:00,85.7,71.2,30.09,SSW,192,0.0,0.0,62,0.00,CLR,,0.00,0.0,WeatherDisplay:10.37,2013-07-18 00:36:00,
2013-07-17 20:41:00,85.6,72.0,30.08,SSW,192,0.0,0.0,64,0.00,CLR,,0.00,0.0,WeatherDisplay:10.37,2013-07-18 00:41:00,
2013-07-17 20:46:00,85.4,71.4,30.08,SSW,192,0.0,0.0,63,0.00,CLR,,0.00,0.0,WeatherDisplay:10.37,2013-07-18 00:46:00,
2013-07-17 20:51:00,85.1,71.5,30.08,SSW,192,1.2,1.2,64,0.00,CLR,,0.00,0.0,WeatherDisplay:10.37,2013-07-18 00:51:00,
2013-07-17 20:56:00,84.7,71.6,30.08,SSW,192,2.0,2.0,65,0.00,CLR,,0.00,0.0,WeatherDisplay:10.37,2013-07-18 00:56:00,
2013-07-17 21:01:00,84.3,71.7,30.09,SSW,192,1.2,1.2,66,0.00,CLR,,0.00,0.0,WeatherDisplay:10.37,2013-07-18 01:01:00,
2013-07-17 21:06:00,84.0,72.3,30.09,SSW,192,2.3,2.3,68,0.00,CLR,,0.00,0.0,WeatherDisplay:10.37,2013-07-18 01:06:00,
2013-07-17 21:11:00,83.7,73.3,30.09,SSW,192,1.2,1.2,71,0.00,CLR,,0.00,0.0,WeatherDisplay:10.37,2013-07-18 01:11:00,
2013-07-17 21:16:00,83.3,73.3,30.09,SSW,192,2.3,2.3,72,0.00,CLR,,0.00,0.0,WeatherDisplay:10.37,2013-07-18 01:16:00,
2013-07-17 21:21:00,82.9,73.4,30.08,SSW,192,0.0,0.0,73,0.00,CLR,,0.00,0.0,WeatherDisplay:10.37,2013-07-18 01:21:00,
2013-07-17 21:26:00,82.5,73.4,30.08,SSW,192,2.3,2.3,74,0.00,CLR,,0.00,0.0,WeatherDisplay:10.37,2013-07-18 01:26:00,
2013-07-17 21:31:00,82.1,73.0,30.08,SSW,192,0.0,0.0,74,0.00,CLR,,0.00,0.0,WeatherDisplay:10.37,2013-07-18 01:31:00,
2013-07-17 21:36:00,81.8,73.1,30.08,SSW,192,0.0,0.0,75,0.00,CLR,,0.00,0.0,WeatherDisplay:10.37,2013-07-18 01:36:00,
2013-07-17 21:41:00,81.6,72.9,30.08,SSW,192,0.0,0.0,75,0.00,CLR,,0.00,0.0,WeatherDisplay:10.37,2013-07-18 01:41:00,
2013-07-17 21:46:00,81.5,72.8,30.09,SSW,192,0.0,0.0,75,0.00,CLR,,0.00,0.0,WeatherDisplay:10.37,2013-07-18 01:46:00,
2013-07-17 21:51:00,81.4,72.3,30.09,SSW,192,0.0,0.0,74,0.00,CLR,,0.00,0.0,WeatherDisplay:10.37,2013-07-18 01:51:00,
2013-07-17 21:56:00,81.5,72.8,30.09,SSW,192,1.2,0.0,75,0.00,CLR,,0.00,0.0,WeatherDisplay:10.37,2013-07-18 01:56:00,
2013-07-17 22:01:00,81.5,72.8,30.09,SSW,192,1.2,1.2,75,0.00,CLR,,0.00,0.0,WeatherDisplay:10.37,2013-07-18 02:01:00,
2013-07-17 22:06:00,81.4,72.7,30.08,SSW,192,0.0,0.0,75,0.00,CLR,,0.00,0.0,WeatherDisplay:10.37,2013-07-18 02:06:00,
2013-07-17 22:11:00,81.2,72.5,30.09,SSW,192,0.0,0.0,75,0.00,CLR,,0.00,0.0,WeatherDisplay:10.37,2013-07-18 02:11:00,
2013-07-17 22:16:00,81.0,72.3,30.08,SSW,192,1.2,0.0,75,0.00,CLR,,0.00,0.0,WeatherDisplay:10.37,2013-07-18 02:16:00,
2013-07-17 22:21:00,80.9,72.2,30.09,SSW,192,1.2,1.2,75,0.00,CLR,,0.00,0.0,WeatherDisplay:10.37,2013-07-18 02:21:00,
2013-07-17 22:26:00,80.7,72.4,30.09,SSW,192,1.2,0.0,76,0.00,CLR,,0.00,0.0,WeatherDisplay:10.37,2013-07-18 02:26:00,
2013-07-17 22:31:00,80.6,72.3,30.09,SSW,192,2.3,2.3,76,0.00,CLR,,0.00,0.0,WeatherDisplay:10.37,2013-07-18 02:31:00,
2013-07-17 22:36:00,80.6,72.7,30.09,SSW,192,0.0,0.0,77,0.00,CLR,,0.00,0.0,WeatherDisplay:10.37,2013-07-18 02:36:00,
2013-07-17 22:41:00,80.5,72.6,30.09,SSW,192,0.0,0.0,77,0.00,CLR,,0.00,0.0,WeatherDisplay:10.37,2013-07-18 02:41:00,
2013-07-17 22:46:00,80.2,72.7,30.08,SSW,192,0.0,0.0,78,0.00,CLR,,0.00,0.0,WeatherDisplay:10.37,2013-07-18 02:46:00,
2013-07-17 22:51:00,80.0,72.5,30.08,SSW,192,0.0,0.0,78,0.00,CLR,,0.00,0.0,WeatherDisplay:10.37,2013-07-18 02:51:00,
2013-07-17 22:56:00,80.0,72.5,30.08,SSW,192,1.2,1.2,78,0.00,CLR,,0.00,0.0,WeatherDisplay:10.37,2013-07-18 02:56:00,
2013-07-17 23:01:00,80.0,72.9,30.08,SSW,192,1.2,1.2,79,0.00,CLR,,0.00,0.0,WeatherDisplay:10.37,2013-07-18 03:01:00,
2013-07-17 23:06:00,80.0,72.9,30.08,SSW,192,1.2,1.2,79,0.00,CLR,,0.00,0.0,WeatherDisplay:10.37,2013-07-18 03:06:00,
2013-07-17 23:11:00,79.9,72.8,30.08,SSW,192,0.0,0.0,79,0.00,CLR,,0.00,0.0,WeatherDisplay:10.37,2013-07-18 03:11:00,
2013-07-17 23:16:00,79.9,72.8,30.08,SSW,192,1.2,0.0,79,0.00,CLR,,0.00,0.0,WeatherDisplay:10.37,2013-07-18 03:16:00,
2013-07-17 23:21:00,79.8,72.7,30.08,SSW,192,0.0,0.0,79,0.00,CLR,,0.00,0.0,WeatherDisplay:10.37,2013-07-18 03:21:00,
2013-07-17 23:26:00,79.8,72.7,30.08,SSW,192,1.2,1.2,79,0.00,CLR,,0.00,0.0,WeatherDisplay:10.37,2013-07-18 03:26:00,
2013-07-17 23:31:00,79.7,72.6,30.08,SSW,192,0.0,0.0,79,0.00,CLR,,0.00,0.0,WeatherDisplay:10.37,2013-07-18 03:31:00,
2013-07-17 23:36:00,79.6,72.5,30.08,SSW,192,1.2,1.2,79,0.00,CLR,,0.00,0.0,WeatherDisplay:10.37,2013-07-18 03:36:00,
2013-07-17 23:41:00,79.4,72.7,30.08,SSW,192,0.0,0.0,80,0.00,CLR,,0.00,0.0,WeatherDisplay:10.37,2013-07-18 03:41:00,
2013-07-17 23:46:00,79.3,73.0,30.08,SSW,192,1.2,0.0,81,0.00,CLR,,0.00,0.0,WeatherDisplay:10.37,2013-07-18 03:46:00,
2013-07-17 23:51:00,79.4,73.1,30.08,SSW,192,1.2,0.0,81,0.00,CLR,,0.00,0.0,WeatherDisplay:10.37,2013-07-18 03:51:00,
2013-07-17 23:56:00,79.4,72.7,30.07,SSW,192,1.2,1.2,80,0.00,CLR,,0.00,0.0,WeatherDisplay:10.37,2013-07-18 03:56:00,